TIME,DELAY(SENSOR),PRES,OXYGEN,RAWTEMP,T(OPTODE),TCPHASE,FLUOR,BETA(BETA700),BETA(BETA412),BETA(BETA440),CDOM,C(CSC),ED(ED412.20),ED(ED444.00),ED(ED489.60),ED(ED554.30),LU(LU412.10),LU(LU443.90),LU(LU489.70),LU(LU554.70),COMP,TILTX,TILTY,CHECK
1359082758,5807,881.2100219726562000,35.2379989624023440,560.3629150390625000,4.4746479988098145,56.2480812072753900,55,99,100,78,81,15544,0,0,0,0,2147122669,2147776950,2147573467,2147571840,2465,2,13,18653
1359086354,5808,945.8800048828125000,40.5830307006835940,569.5156860351562000,4.1906108856201170,55.5206489562988300,55,98,100,77,82,15534,0,0,0,0,2147122432,2147775478,2147572141,2147570560,190,2,13,1496
1359089954,5809,951.4600219726562000,42.5481605529785160,570.9564819335938000,4.1458339691162110,55.2508888244628900,55,98,100,78,81,15542,0,0,0,0,2147121526,2147777526,2147572205,2147567158,66,3,13,14536
1359093554,5811,999.8200073242188000,43.3890113830566400,572.1508789062500000,4.1087021827697750,55.1420211791992200,55,98,100,78,83,15541,0,0,0,0,2147121773,2147775040,2147575661,2147569380,3145,2,13,18883
1359097154,5807,996.7299804687500000,43.8402481079101560,571.7910766601562000,4.1198859214782715,55.0783195495605500,55,101,98,77,81,15542,0,0,0,0,2147122944,2147775862,2147576539,2147566646,339,3,13,5892
1359100754,5810,1001.8599853515625000,43.6339607238769500,571.9904174804688000,4.1136908531188965,55.1021118164062500,56,98,100,78,82,15542,0,0,0,0,2147124617,2147775478,2147575533,2147568246,487,2,13,54884
1359104354,5810,997.8699951171875000,43.2604713439941400,572.1508789062500000,4.1087021827697750,55.1570510864257800,55,97,101,78,83,15541,0,0,0,0,2147122925,2147772068,2147574765,2147566747,545,2,13,6320
1359107954,5812,1004.9000244140625000,43.3658599853515600,572.0211791992188000,4.1127338409423830,55.1445312500000000,56,99,101,77,81,15541,0,0,0,0,2147121728,2147773046,2147577664,2147568658,3120,2,13,4893
1359111554,5810,1006.5900268554688000,42.9023704528808600,572.1113281250000000,4.1099338531494140,55.2104301452636700,55,97,102,77,81,15531,0,0,0,0,2147122130,2147776466,2147575195,2147569910,3309,2,13,42797
1359115154,5807,998.2199707031250000,42.5158805847168000,572.8635253906250000,4.0865402221679690,55.2766494750976560,54,101,100,78,83,15536,0,0,0,0,2147122706,2147778267,2147573805,2147569398,839,2,13,20597
1359118754,5812,1003.5999755859375000,43.1633186340332000,573.3474121093750000,4.0714907646179200,55.1870002746582000,54,98,101,78,83,15539,0,0,0,0,2147121307,2147767643,2147574500,2147569243,361,3,13,11661
1359122354,5809,1004.7999877929688000,43.1863708496093750,573.2769165039062000,4.0736851692199710,55.1817893981933600,55,98,100,78,81,15530,0,0,0,0,2147124169,2147775405,2147577627,2147567881,154,2,13,59992
1359125954,5810,998.5999755859375000,43.0461196899414060,573.3137207031250000,4.0725398063659670,55.2016792297363300,55,98,99,79,82,15527,0,0,0,0,2147121947,2147777581,2147573366,2147570267,3331,2,13,22119
1359129554,5810,1003.3300170898438000,42.8980484008789060,573.5272827148438000,4.0658950805664060,55.2291297912597660,55,97,100,79,83,15527,0,0,0,0,2147121225,2147775881,2147573293,2147566372,10,2,13,52717
1359133154,5811,1008.5499877929688000,43.0404396057128900,573.2705078125000000,4.0738830566406250,55.2064208984375000,55,97,100,78,82,15501,0,0,0,0,2147122194,2147776356,2147575808,2147568301,29,3,13,39181
1359136754,5811,1017.9400024414062000,41.7531394958496100,571.5128784179688000,4.1285362243652340,55.3733596801757800,54,98,101,78,81,15500,0,0,0,0,2147124096,2147773933,2147572397,2147569060,87,3,13,9941
1359140354,5809,1009.9400024414062000,42.6571502685546900,572.2147216796875000,4.1067161560058590,55.2450599670410160,55,99,100,78,82,15502,0,0,0,0,2147124827,2147776256,2147573248,2147567926,457,2,13,30798
1359143954,5811,1010.7600097656250000,43.1441497802734400,573.0941772460938000,4.0793671607971190,55.1882209777832000,55,98,99,79,81,15497,0,0,0,0,2147120000,2147776758,2147575268,2147566317,258,3,13,44655
1359147554,5809,1010.4099731445312000,42.3833694458007800,572.5537109375000000,4.0961761474609375,55.2897605895996100,54,98,100,78,81,15496,0,0,0,0,2147126253,2147775104,2147575122,2147568429,203,2,13,38061
1359151154,5811,1011.1400146484375000,42.5427398681640600,572.5211791992188000,4.0971870422363280,55.2653808593750000,55,97,100,78,82,15499,0,0,0,0,2147124160,2147774125,2147574857,2147568073,3306,2,13,23823
1359154754,5809,1017.2700195312500000,42.7016410827636700,572.0718994140625000,4.1111578941345215,55.2407798767089840,55,97,100,79,82,15498,0,0,0,0,2147124269,2147775113,2147572726,2147566985,212,3,13,61325
1359158354,5808,1015.1300048828125000,42.5705795288085940,572.1146850585938000,4.1098270416259770,55.2574386596679700,54,98,100,78,82,15500,0,0,0,0,2147121581,2147775378,2147572141,2147572297,3490,2,13,41737
1359161954,5809,1007.9699707031250000,42.5820388793945300,573.2938842773438000,4.0731558799743650,55.2689208984375000,54,97,101,78,82,15497,0,0,0,0,2147120978,2147773257,2147572690,2147569225,157,2,13,2986
1359165554,5811,1005.0499877929688000,42.8855094909668000,573.3035888671875000,4.0728530883789060,55.2258186340332000,55,98,100,77,82,15498,0,0,0,0,2147122770,2147772032,2147571062,2147566262,52,2,13,20582
1359169154,5811,1007.0700073242188000,43.2304382324218750,573.7650146484375000,4.0585021972656250,55.1823883056640600,54,99,100,77,83,15496,0,0,0,0,2147122907,2147775405,2147577563,2147568502,196,3,13,3644
1359172754,5809,1006.1799926757812000,43.3582496643066400,573.7545166015625000,4.0588297843933105,55.1644401550293000,55,99,101,78,82,15498,0,0,0,0,2147124534,2147770624,2147575533,2147566774,315,2,13,18243
1359176354,5809,1008.9600219726562000,43.0288696289062500,573.2905883789062000,4.0732560157775880,55.2083587646484400,56,98,100,78,82,15496,0,0,0,0,2147125504,2147775634,2147576859,2147565019,306,3,13,59757
1359179954,5808,1006.3699951171875000,43.3316612243652340,574.0651855468750000,4.0491619110107420,55.1696395874023440,54,100,100,78,82,15497,0,0,0,0,2147123291,2147772955,2147574473,2147568603,232,2,13,53826
1359183554,5809,1012.9600219726562000,42.8056907653808600,573.3927001953125000,4.0700821876525880,55.2406806945800800,54,99,100,76,81,15493,0,0,0,0,2147126619,2147775881,2147576320,2147571876,33,2,13,55953
1359187154,5809,1009.8800048828125000,42.3908386230468750,573.0294189453125000,4.0813808441162110,55.2985191345214840,56,98,99,78,82,15491,0,0,0,0,2147126061,2147773741,2147574820,2147567872,413,2,13,57765
1359190754,5810,1009.7899780273438000,42.8255004882812500,573.1243286132812000,4.0784320831298830,55.2313613891601560,56,98,100,81,81,15493,0,0,0,0,2147123309,2147774500,2147575552,2147569115,348,2,13,46669
1359194354,5808,998.4299926757812000,43.1530609130859400,574.2437133789062000,4.0436081886291500,55.1981315612793000,54,100,101,79,83,15492,0,0,0,0,2147119652,2147778093,2147575204,2147567122,2764,2,13,47544
1359197954,5807,1004.5900268554688000,43.5101699829101560,574.4077148437500000,4.0385069847106930,55.1489791870117200,55,98,99,79,82,15490,0,0,0,0,2147127424,2147771529,2147576530,2147568320,393,2,13,64646
1359201554,5809,1010.7500000000000000,43.1904907226562500,573.6328125000000000,4.0626139640808105,55.1893882751464840,54,96,100,78,81,15483,0,0,0,0,2147123300,2147773668,2147574336,2147565833,135,3,13,18185
1359205154,5811,1013.7100219726562000,43.1544799804687500,573.5432739257812000,4.0653991699218750,55.1896209716796900,54,99,100,79,82,15485,0,0,0,0,2147122432,2147776155,2147574710,2147567817,3356,2,13,43914
1359208754,5810,1010.5599975585938000,43.0101203918457000,573.7302246093750000,4.0595860481262210,55.2146797180175800,56,99,100,78,81,15482,0,0,0,0,2147123163,2147773302,2147577499,2147566610,574,2,13,44491
1359212354,5808,1009.5599975585938000,43.8224601745605500,573.9495239257812000,4.0527629852294920,55.0973396301269500,54,98,100,79,82,15481,0,0,0,0,2147123437,2147772827,2147576758,2147564205,464,2,13,26310
1359215954,5811,1013.1500244140625000,43.1018714904785160,573.5471801757812000,4.0652751922607420,55.1961402893066400,55,99,101,78,81,15480,0,0,0,0,2147124809,2147775058,2147577590,2147568859,12,2,13,16288
1359219554,5809,1014.6699829101562000,42.9472618103027340,573.4539794921875000,4.0681757926940920,55.2220497131347660,55,99,100,78,81,15479,0,0,0,0,2147124013,2147773485,2147577993,2147565860,370,2,13,6655
1359223154,5809,1016.2100219726562000,42.5308189392089840,573.2576293945312000,4.0742840766906740,55.2776908874511700,54,99,100,79,83,15480,0,0,0,0,2147127012,2147771209,2147573924,2147569078,3499,2,13,42196
1359226754,5807,1014.3400268554688000,42.4961090087890600,573.0612182617188000,4.0803928375244140,55.2819900512695300,55,99,100,78,81,15479,0,0,0,0,2147124452,2147770761,2147577024,2147568173,438,2,13,10961
1359227755,5808,1016.2199707031250000,42.5750389099121100,573.3433227539062000,4.0716190338134770,55.2704086303710940,54,98,100,77,82,15482,0,0,0,0,2147125037,2147775405,2147575149,2147571620,419,3,13,41519
